User: anonymous
Location: Ithaca
(42.4410°N, 76.4970°W)
Time: 17:33:31
(UTC-04:00)
Language:

Cosmos 1271 Rocket - Orbit

View from above orbital plane
View from above orbital plane
View from above satellite
View from above satellite

Ground track
Ground track

The orbit data is extracted from the following two-line orbital elements,

1 12465U 81046B   14203.11211295  .00000736  00000-0  43388-4 0  2921
2 12465 081.2327 160.8572 0034041 260.5150 099.2228 15.09886401807068
Epoch (UTC): 22 July 2014 02:41:26
Eccentricity: 0.0034041
inclination: 81.2327°
perigee height: 513 km
apogee height: 560 km
right ascension of ascending node: 160.8572°
argument of perigee: 260.5150°
revolutions per day: 15.09886401
mean anomaly at epoch: 99.2228°
orbit number at epoch: 80706

The dashed part of the orbit path shows where the satellite is in the earth's shadow,  

DLR